Wind_Speed
26 25 24 24 23 22 22 21 22 22 21 20 21 21 21 19 19 19 19 19 19 19 19 19 19 20 20 21 22 23 25 26 27 28 29 30 31 32 33 33 34 35 35 36
26 25 25 24 22 22 22 21 21 21 20 20 20 20 20 20 19 19 19 19 19 19 20 20 21 22 23 24 25 26 27 28 29 30 31 32 32 32 33 33 33 34 34 34
27 25 25 24 23 23 22 21 21 20 20 19 19 20 20 20 20 19 19 19 19 20 21 22 23 24 25 26 27 28 29 30 30 31 31 31 30 30 31 31 32 32 33 34
28 26 25 25 24 23 22 21 21 21 20 19 20 20 20 20 20 20 20 20 21 21 22 23 25 26 27 28 29 30 30 31 31 30 30 30 30 30 31 31 32 33 34 35
27 26 25 24 24 23 22 22 21 21 21 20 20 20 19 20 20 21 21 22 22 23 24 25 26 27 28 29 30 30 31 31 30 30 30 30 30 31 32 33 33 34 35 37
26 26 25 24 24 23 22 23 23 22 21 21 20 20 20 20 21 22 22 23 23 24 25 26 27 28 29 30 30 30 30 30 30 30 30 31 31 32 33 34 35 36 37 39
27 26 25 25 24 23 23 23 23 23 22 21 20 21 20 20 22 23 23 24 25 26 27 28 28 29 30 30 30 30 31 31 31 31 31 32 33 34 34 35 37 38 40 42
28 27 26 25 24 24 23 23 23 23 23 21 21 21 20 21 22 23 24 25 26 27 28 29 30 30 30 30 31 31 32 32 32 32 33 34 35 36 38 39 41 43 44 47
28 27 26 25 25 25 24 23 23 24 24 23 22 21 21 22 23 25 26 27 27 29 30 31 31 31 31 32 32 33 33 33 34 35 36 37 38 40 41 43 45 47 49 51
28 27 25 25 25 25 24 23 24 24 25 24 23 22 22 23 25 26 27 28 29 30 32 32 33 33 33 34 34 35 35 36 36 37 39 40 41 43 45 47 49 51 54 56
27 26 25 25 25 25 25 24 25 26 26 26 26 23 23 25 26 28 29 30 31 32 33 34 35 35 36 36 36 37 37 38 39 40 42 43 45 46 49 51 53 56 58 61
26 27 26 26 26 26 26 25 26 27 28 28 28 26 25 27 29 30 31 32 33 34 35 36 37 37 38 38 38 38 39 40 41 43 45 46 48 50 52 55 58 60 63 66
28 28 27 27 27 26 26 26 27 28 29 29 29 28 28 30 32 33 34 35 36 37 38 38 39 39 39 39 39 40 41 42 44 46 47 49 52 54 56 59 62 65 67 70
30 29 28 28 28 28 28 28 29 30 30 31 30 30 30 33 34 35 36 37 38 39 39 39 40 40 40 40 41 42 43 45 47 49 51 53 55 58 60 63 66 69 72 75
32 31 30 30 30 30 30 30 30 31 31 34 33 32 32 36 37 37 38 39 40 40 40 40 40 41 41 42 43 44 46 48 50 52 54 56 59 62 65 67 70 73 76 78
33 33 32 32 32 33 33 31 32 33 34 36 37 35 35 37 38 39 40 40 40 40 41 41 42 42 43 44 45 47 49 50 53 55 57 60 63 66 68 71 74 76 79 81
34 34 34 34 34 36 36 31 33 35 35 37 38 38 38 38 39 40 41 41 42 42 42 42 42 43 44 46 47 49 51 53 55 58 60 63 66 69 72 74 77 79 81 82
35 35 36 37 36 39 37 34 35 37 37 38 39 40 40 41 41 41 41 42 42 42 42 43 44 45 46 48 49 51 53 56 58 61 64 67 70 72 75 77 79 81 82 83
36 36 37 39 40 41 38 37 37 39 38 38 40 41 42 42 42 41 40 41 41 41 42 44 45 46 48 50 51 53 56 59 61 64 66 69 72 75 77 79 81 82 83 83
37 37 39 40 42 43 39 37 38 39 39 38 39 40 40 40 40 40 40 40 41 42 43 44 46 48 50 52 54 56 59 61 64 66 69 72 75 77 79 80 82 82 83 82
37 39 40 41 43 44 41 39 39 39 40 38 38 39 39 39 39 40 40 41 41 42 44 45 47 49 52 54 56 59 61 64 66 69 71 74 76 78 80 81 82 82 82 80
38 40 40 41 43 44 42 42 41 41 40 39 38 38 38 39 39 40 41 42 43 44 46 47 49 51 54 56 59 61 64 66 69 71 73 75 77 79 80 81 81 81 79 76
39 40 41 42 43 44 44 44 43 42 41 40 40 39 39 39 39 40 41 42 44 46 47 49 51 53 56 59 62 64 66 69 71 72 74 76 77 79 80 81 80 78 75 72
39 40 41 41 42 43 44 44 43 43 42 41 40 40 39 39 40 40 42 43 45 47 49 51 53 56 58 61 64 66 69 71 73 74 75 77 78 79 79 79 77 74 70 66
39 40 41 42 42 43 42 42 42 42 42 41 40 40 40 40 41 42 43 45 47 49 51 54 56 58 61 63 66 68 71 72 73 75 77 78 79 79 78 76 73 69 65 62
39 39 40 41 41 42 42 42 42 42 42 41 41 41 41 42 43 44 46 47 49 52 54 56 59 61 63 66 68 70 72 73 75 77 78 79 79 78 76 72 67 63 60 57
Wind_Direction
236 240 244 250 255 258 261 264 268 271 274 274 275 275 277 277 277 279 280 281 284 286 288 290 291 292 292 292 292 293 293 293 293 292 291 290 289 289 288 287 286 285 285 284
235 239 244 250 254 257 260 264 267 271 273 272 272 273 275 276 277 278 280 282 285 287 290 291 292 292 292 292 293 294 294 294 293 292 292 291 290 289 289 288 287 287 286 286
235 238 244 248 252 256 259 263 266 269 270 269 270 271 273 275 276 278 280 283 285 288 290 291 290 291 291 292 293 294 294 294 294 293 293 292 291 290 289 289 288 287 287 287
235 238 243 248 251 254 258 261 264 266 267 267 268 268 270 273 275 278 281 283 285 287 288 289 289 290 291 292 294 295 295 294 294 293 293 292 292 291 290 290 290 289 288 288
235 238 242 247 250 253 256 259 262 263 265 266 266 267 267 271 275 278 281 282 284 286 287 288 289 290 291 292 293 294 294 293 293 292 291 291 291 291 291 291 290 290 290 290
235 238 242 246 249 252 255 258 260 262 264 263 263 266 268 271 274 277 280 282 284 286 287 288 289 290 291 291 292 292 292 292 292 291 291 291 292 292 291 291 291 291 292 292
235 239 242 245 249 252 254 257 260 262 262 262 263 266 270 272 275 278 280 283 285 287 288 289 290 291 291 291 291 292 292 291 291 291 291 291 292 292 291 291 291 292 292 293
236 239 242 245 248 252 253 256 260 263 263 262 263 268 272 274 276 279 281 284 286 287 289 291 292 291 290 291 292 292 291 291 291 291 290 290 291 291 292 292 292 293 294 294
236 239 241 244 247 250 253 256 260 263 264 265 266 270 273 275 278 281 283 285 287 288 290 291 291 290 290 291 291 291 291 291 290 290 290 290 291 292 293 293 294 295 295 295
234 238 240 244 246 250 253 256 260 263 267 268 268 272 275 276 279 281 283 285 287 289 290 291 290 290 290 291 291 291 290 290 289 289 290 291 292 293 294 294 295 296 296 297
235 238 240 243 246 251 254 257 260 264 268 272 273 274 277 279 280 281 282 284 287 290 291 291 290 289 290 291 291 291 290 290 290 290 291 292 293 294 295 296 297 298 298 298
234 238 241 244 247 251 254 258 262 266 270 273 276 279 280 280 280 281 282 285 288 290 291 290 289 289 290 291 291 291 291 291 291 291 293 294 295 296 297 298 299 299 300 300
237 240 244 247 249 252 256 259 263 268 271 275 278 283 282 281 281 282 284 286 289 290 290 290 289 289 290 291 292 292 292 293 293 294 295 296 297 298 299 300 300 301 302 302
239 242 245 249 252 254 257 261 265 270 274 276 279 281 282 282 282 284 285 287 289 289 289 289 289 289 290 291 292 293 294 294 295 296 297 298 299 300 301 301 302 303 304 304
241 245 248 250 254 257 259 262 267 271 275 278 280 280 282 282 283 285 286 287 288 288 288 288 288 289 290 291 293 293 294 295 296 298 299 300 301 302 302 303 304 305 306 306
245 248 251 254 257 260 262 265 270 273 275 278 279 280 281 282 283 284 285 286 287 287 287 288 288 289 290 292 293 294 295 297 298 299 300 301 302 303 304 305 306 307 307 307
246 250 253 256 258 261 263 268 271 273 275 277 279 281 282 283 283 284 285 286 286 286 287 287 288 289 291 292 294 295 296 298 299 300 301 302 303 305 306 306 307 308 308 308
247 251 255 259 260 262 268 269 272 274 275 277 279 281 282 283 284 285 285 285 285 285 285 286 287 289 291 292 294 296 297 299 300 301 303 304 305 306 307 308 308 309 309 309
248 252 257 260 263 266 268 272 274 275 276 278 279 280 281 283 284 285 285 284 284 284 285 286 288 290 291 293 295 297 298 300 301 303 304 305 306 307 308 309 309 310 310 310
250 253 258 263 267 271 273 274 276 278 279 279 279 281 283 284 284 285 285 284 284 284 285 287 289 291 293 294 296 298 299 301 302 304 305 306 307 308 309 310 310 311 311 311
252 256 260 265 269 273 277 280 280 282 283 283 283 283 283 284 284 284 284 284 284 285 287 288 290 292 294 296 298 299 301 302 304 305 306 307 308 309 310 310 311 311 312 311
256 259 262 266 270 275 278 281 282 283 284 286 286 285 284 283 283 283 283 283 285 286 288 290 292 294 296 298 299 301 302 303 304 306 307 308 309 310 311 311 312 312 312 311
259 262 265 267 270 274 277 279 281 283 284 286 286 285 284 283 282 282 283 284 286 288 290 292 294 296 298 299 301 302 303 304 305 307 308 309 310 311 312 312 313 313 312 311
262 264 267 270 272 275 277 278 280 282 284 286 285 284 283 282 282 283 285 286 288 290 292 294 295 297 299 300 301 303 304 305 306 308 309 310 311 312 312 313 313 312 311 310
265 267 269 271 273 274 275 277 279 282 283 284 283 283 282 282 283 285 287 288 290 292 294 295 297 298 300 301 302 304 305 306 307 308 310 311 312 312 313 313 313 312 311 310
267 268 269 270 271 273 275 277 279 281 281 281 281 281 282 283 285 287 288 290 292 294 295 297 298 300 301 302 303 305 306 307 308 309 311 311 312 312 313 312 311 311 310 309
Height
5823 5826 5827 5827 5829 5830 5831 5831 5830 5830 5830 5830 5829 5829 5828 5828 5827 5826 5826 5825 5825 5824 5823 5822 5821 5820 5819 5818 5816 5815 5813 5812 5810 5808 5806 5804 5802 5800 5797 5795 5793 5791 5789 5786
5818 5820 5821 5822 5823 5824 5825 5825 5825 5825 5825 5825 5824 5824 5823 5822 5822 5822 5821 5820 5820 5819 5818 5817 5816 5815 5814 5812 5811 5809 5807 5805 5803 5801 5799 5796 5794 5792 5789 5787 5785 5782 5780 5778
5811 5814 5815 5816 5818 5819 5819 5820 5820 5820 5820 5820 5820 5819 5818 5817 5817 5817 5816 5815 5815 5814 5813 5812 5811 5809 5808 5806 5804 5802 5800 5798 5796 5794 5791 5788 5786 5784 5782 5779 5777 5774 5772 5769
5805 5807 5809 5811 5812 5813 5814 5814 5815 5815 5815 5815 5815 5815 5814 5813 5812 5812 5811 5810 5809 5809 5807 5806 5805 5803 5802 5800 5798 5796 5793 5791 5789 5786 5784 5781 5779 5776 5774 5771 5769 5766 5763 5760
5799 5801 5803 5805 5806 5807 5808 5809 5810 5810 5810 5810 5810 5809 5810 5808 5807 5807 5806 5805 5804 5803 5802 5800 5799 5797 5795 5793 5791 5789 5786 5784 5781 5779 5776 5774 5771 5769 5766 5763 5760 5757 5755 5751
5792 5795 5797 5799 5800 5802 5803 5804 5804 5804 5804 5806 5805 5805 5805 5804 5802 5801 5800 5799 5798 5797 5796 5794 5792 5790 5789 5787 5784 5782 5780 5777 5774 5772 5769 5766 5764 5761 5758 5755 5752 5749 5745 5742
5786 5789 5791 5792 5794 5796 5797 5798 5799 5799 5799 5800 5800 5799 5800 5799 5797 5796 5795 5793 5792 5791 5789 5787 5786 5784 5782 5780 5777 5775 5772 5770 5767 5764 5761 5759 5756 5753 5750 5746 5743 5740 5736 5732
5780 5783 5785 5787 5788 5789 5791 5792 5794 5794 5794 5794 5794 5794 5795 5793 5791 5790 5789 5787 5786 5784 5782 5781 5779 5777 5774 5772 5770 5767 5765 5762 5759 5756 5753 5750 5747 5744 5741 5737 5733 5729 5725 5721
5773 5776 5778 5780 5782 5783 5785 5786 5787 5787 5787 5788 5788 5789 5788 5787 5785 5783 5782 5781 5779 5777 5775 5773 5771 5769 5767 5764 5762 5759 5757 5754 5751 5748 5744 5741 5738 5734 5731 5727 5722 5718 5714 5709
5766 5770 5772 5773 5775 5777 5779 5780 5780 5780 5781 5781 5783 5783 5782 5780 5779 5777 5775 5774 5772 5770 5768 5766 5763 5761 5758 5756 5754 5751 5748 5745 5742 5738 5735 5731 5728 5724 5720 5715 5711 5706 5700 5695
5760 5763 5766 5768 5770 5771 5773 5774 5774 5774 5774 5775 5775 5779 5776 5773 5772 5770 5768 5766 5765 5763 5760 5758 5755 5752 5750 5747 5745 5742 5739 5735 5732 5729 5725 5721 5717 5712 5708 5703 5697 5692 5686 5680
5753 5756 5758 5761 5763 5764 5766 5767 5767 5768 5768 5767 5767 5772 5768 5766 5763 5762 5760 5759 5757 5755 5752 5749 5746 5743 5741 5738 5735 5732 5728 5725 5722 5718 5714 5709 5705 5700 5695 5689 5683 5677 5670 5663
5747 5750 5752 5754 5758 5758 5759 5760 5760 5760 5760 5760 5760 5764 5760 5757 5755 5753 5752 5750 5748 5746 5743 5740 5737 5734 5731 5728 5725 5721 5718 5714 5710 5706 5702 5697 5692 5686 5681 5674 5668 5661 5653 5645
5740 5743 5747 5749 5749 5750 5752 5753 5752 5752 5752 5752 5753 5754 5752 5748 5746 5745 5743 5741 5738 5736 5733 5730 5727 5724 5721 5718 5715 5711 5707 5703 5699 5694 5689 5684 5678 5672 5666 5659 5651 5644 5635 5627
5733 5736 5738 5740 5741 5743 5744 5745 5745 5745 5745 5744 5744 5744 5743 5739 5737 5735 5733 5731 5728 5726 5723 5720 5717 5714 5711 5708 5704 5700 5695 5691 5686 5681 5676 5670 5664 5657 5650 5642 5634 5626 5616 5607
5725 5728 5730 5732 5733 5734 5735 5737 5737 5737 5736 5735 5734 5734 5733 5730 5728 5725 5723 5721 5718 5715 5713 5710 5707 5704 5700 5697 5693 5688 5683 5679 5673 5668 5662 5655 5648 5641 5633 5625 5616 5607 5597 5587
5718 5720 5722 5724 5725 5724 5726 5731 5729 5728 5728 5726 5724 5725 5722 5720 5718 5716 5713 5710 5707 5705 5702 5699 5696 5692 5689 5685 5681 5676 5671 5666 5660 5654 5647 5640 5633 5625 5616 5607 5598 5588 5577 5567
5710 5712 5713 5714 5716 5715 5721 5721 5720 5718 5718 5716 5715 5713 5711 5709 5707 5705 5702 5700 5697 5694 5691 5688 5684 5681 5677 5673 5668 5663 5658 5652 5646 5640 5632 5624 5616 5608 5598 5589 5579 5568 5557 5546
5702 5703 5704 5705 5704 5705 5710 5711 5710 5708 5708 5707 5704 5702 5700 5698 5696 5694 5691 5688 5686 5683 5680 5676 5673 5669 5665 5661 5656 5651 5645 5638 5632 5624 5616 5608 5599 5590 5580 5570 5560 5548 5537 5526
5693 5694 5696 5695 5695 5695 5700 5701 5699 5698 5697 5697 5694 5691 5689 5687 5685 5683 5680 5677 5674 5671 5668 5665 5661 5657 5653 5648 5643 5637 5631 5624 5616 5609 5600 5591 5581 5572 5562 5551 5540 5528 5516 5505
5684 5685 5686 5686 5684 5685 5688 5688 5688 5688 5687 5685 5682 5680 5678 5676 5674 5672 5668 5665 5662 5660 5656 5653 5649 5644 5640 5634 5629 5623 5616 5608 5601 5592 5583 5574 5564 5553 5543 5532 5520 5508 5497 5485
5674 5675 5676 5676 5675 5677 5676 5676 5676 5675 5674 5673 5671 5669 5667 5665 5662 5659 5657 5654 5651 5648 5644 5640 5636 5631 5626 5620 5614 5608 5600 5593 5585 5576 5566 5556 5546 5535 5523 5512 5501 5488 5476 5465
5664 5666 5666 5667 5668 5667 5665 5664 5664 5663 5663 5661 5659 5658 5655 5653 5650 5648 5645 5642 5639 5636 5632 5628 5623 5618 5612 5605 5598 5592 5584 5576 5567 5558 5549 5538 5528 5516 5504 5493 5481 5470 5458 5447
5653 5654 5655 5656 5656 5655 5654 5653 5652 5652 5651 5649 5648 5646 5643 5641 5639 5636 5633 5630 5627 5623 5619 5614 5609 5604 5597 5590 5583 5575 5567 5559 5550 5541 5531 5520 5510 5499 5487 5475 5463 5451 5440 5430
5642 5643 5644 5644 5644 5643 5642 5642 5641 5640 5639 5637 5635 5633 5631 5629 5627 5624 5621 5618 5614 5610 5605 5600 5595 5589 5582 5575 5567 5559 5550 5541 5533 5523 5513 5502 5492 5480 5469 5458 5446 5435 5425 5413
5632 5632 5632 5633 5633 5632 5632 5631 5630 5628 5627 5625 5624 5622 5619 5617 5615 5612 5609 5605 5601 5596 5591 5586 5580 5573 5566 5559 5550 5541 5532 5523 5514 5505 5495 5484 5473 5462 5451 5441 5432 5421 5411 5402